When you browse on this site, cookies collect data to enhance your experience and personalize the content and advertising you see.
Visit our Privacy Policy to learn more. By continuing to use the site, you agree to this use of cookies and data.
  • In Austria
  • List of Countries
  • For 7 days
  • Water Temperature
  • Satellite Maps
  • Weather Map
  • News
  • Weather Widgets
  • user-avatar
    Login

    Hourly Weather Myshenki

    Today, 18 February, Monday

    Time Temperature Precipitation Wind Pressure Humidity
    00:00 -6°C° 0.1 mm 7 mps 739 mmHg 78%
    01:00 -7°C° 0.1 mm 7 mps 740 mmHg 78%
    02:00 -7°C° 0.1 mm 7 mps 741 mmHg 78%
    03:00 -8°C° 0 mm 7 mps 742 mmHg 78%
    04:00 -8°C° 0 mm 7 mps 743 mmHg 79%
    05:00 -9°C° 0 mm 6 mps 744 mmHg 80%
    06:00 -9°C° 0 mm 6 mps 745 mmHg 80%
    07:00 -10°C° 0 mm 6 mps 746 mmHg 81%
    08:00 -10°C° 0 mm 6 mps 747 mmHg 82%
    09:00 -10°C° 0 mm 5 mps 747 mmHg 81%
    10:00 -10°C° 0 mm 5 mps 748 mmHg 81%
    11:00 -10°C° 0 mm 5 mps 749 mmHg 81%
    12:00 -10°C° 0 mm 5 mps 749 mmHg 80%
    13:00 -10°C° 0 mm 5 mps 749 mmHg 80%
    14:00 -10°C° 0 mm 5 mps 750 mmHg 79%
    15:00 -9°C° 0 mm 4 mps 750 mmHg 82%
    16:00 -9°C° 0 mm 3 mps 750 mmHg 85%
    17:00 -9°C° 0 mm 2 mps 751 mmHg 88%
    18:00 -10°C° 0 mm 2 mps 751 mmHg 89%
    19:00 -10°C° 0 mm 1 mps 751 mmHg 91%
    20:00 -10°C° 0 mm 1 mps 751 mmHg 92%
    21:00 -10°C° 0 mm 1 mps 751 mmHg 91%
    22:00 -10°C° 0 mm 1 mps 751 mmHg 91%
    23:00 -10°C° 0 mm 1 mps 751 mmHg 90%

    Tomorrow, 19 February, Tuesday

    Time Temperature Precipitation Wind Pressure Humidity
    00:00 -12°C° 0 mm 2 mps 751 mmHg 89%
    01:00 -13°C° 0 mm 3 mps 750 mmHg 88%
    02:00 -12°C° 0 mm 3 mps 750 mmHg 88%
    03:00 -11°C° 0 mm 4 mps 749 mmHg 84%
    04:00 -11°C° 0 mm 5 mps 748 mmHg 81%
    05:00 -10°C° 0 mm 5 mps 748 mmHg 78%
    06:00 -10°C° 0 mm 6 mps 747 mmHg 78%
    07:00 -10°C° 0 mm 6 mps 746 mmHg 79%
    08:00 -10°C° 0 mm 6 mps 746 mmHg 79%
    09:00 -9°C° 0 mm 6 mps 745 mmHg 79%
    10:00 -6°C° 0 mm 5 mps 745 mmHg 78%
    11:00 -5°C° 0 mm 5 mps 744 mmHg 77%
    12:00 -4°C° 0 mm 5 mps 744 mmHg 79%
    13:00 -2°C° 0 mm 5 mps 744 mmHg 82%
    14:00 -2°C° 0 mm 4 mps 743 mmHg 84%
    15:00 -2°C° 0 mm 4 mps 743 mmHg 85%
    16:00 -3°C° 0 mm 4 mps 742 mmHg 86%
    17:00 -2°C° 0 mm 3 mps 742 mmHg 87%
    18:00 -3°C° 0 mm 4 mps 741 mmHg 87%
    19:00 -4°C° 0 mm 4 mps 741 mmHg 86%
    20:00 -4°C° 0 mm 4 mps 740 mmHg 85%
    21:00 -4°C° 0 mm 4 mps 740 mmHg 86%
    22:00 -5°C° 0 mm 5 mps 739 mmHg 87%
    23:00 -6°C° 0 mm 5 mps 739 mmHg 87%

    Day after tomorrow, 20 February, Wednesday

    Time Temperature Precipitation Wind Pressure Humidity
    00:00 -5°C° 0 mm 5 mps 738 mmHg 88%
    01:00 -5°C° 0 mm 5 mps 738 mmHg 89%
    02:00 -4°C° 0 mm 5 mps 737 mmHg 89%
    03:00 -4°C° 0.1 mm 5 mps 736 mmHg 89%
    04:00 -4°C° 0.1 mm 5 mps 736 mmHg 89%
    05:00 -2°C° 0.1 mm 5 mps 735 mmHg 89%
    06:00 -2°C° 0.1 mm 5 mps 734 mmHg 89%
    07:00 -1°C° 0.1 mm 5 mps 734 mmHg 89%
    08:00 -1°C° 0.1 mm 5 mps 733 mmHg 89%
    09:00 -1°C° 0.2 mm 5 mps 733 mmHg 90%
    10:00 -1°C° 0.2 mm 6 mps 733 mmHg 91%
    11:00 -1°C° 0.2 mm 6 mps 733 mmHg 93%
    12:00 0°C° 0 mm 5 mps 733 mmHg 92%
    13:00 0°C° 0 mm 5 mps 733 mmHg 92%
    14:00 0°C° 0 mm 4 mps 733 mmHg 92%
    15:00 0°C° 0.1 mm 5 mps 733 mmHg 91%
    16:00 0°C° 0.1 mm 5 mps 732 mmHg 89%
    17:00 -1°C° 0.1 mm 5 mps 732 mmHg 88%
    18:00 -1°C° 0.1 mm 5 mps 732 mmHg 88%
    19:00 -1°C° 0.1 mm 5 mps 732 mmHg 88%
    20:00 -1°C° 0.1 mm 5 mps 732 mmHg 88%
    21:00 -1°C° 0.3 mm 5 mps 731 mmHg 87%
    22:00 -2°C° 0.3 mm 4 mps 731 mmHg 87%
    23:00 -2°C° 0.3 mm 4 mps 731 mmHg 86%

    21 February, Thursday

    Time Temperature Precipitation Wind Pressure Humidity
    00:00 -3°C° 0 mm 4 mps 732 mmHg 87%
    01:00 -5°C° 0 mm 3 mps 732 mmHg 89%
    02:00 -6°C° 0 mm 3 mps 732 mmHg 90%
    03:00 -6°C° 0 mm 3 mps 732 mmHg 91%
    04:00 -5°C° 0 mm 2 mps 732 mmHg 92%
    05:00 -6°C° 0 mm 2 mps 732 mmHg 93%
    06:00 -5°C° 0.1 mm 2 mps 732 mmHg 93%
    07:00 -5°C° 0.1 mm 2 mps 732 mmHg 93%
    08:00 -5°C° 0.1 mm 2 mps 732 mmHg 93%
    09:00 -4°C° 0 mm 2 mps 733 mmHg 90%
    10:00 -4°C° 0 mm 2 mps 733 mmHg 87%
    11:00 -3°C° 0 mm 2 mps 734 mmHg 85%
    12:00 -4°C° 0.2 mm 4 mps 735 mmHg 86%
    13:00 -6°C° 0.2 mm 5 mps 735 mmHg 87%
    14:00 -6°C° 0.2 mm 6 mps 736 mmHg 89%
    15:00 -8°C° 0.2 mm 6 mps 737 mmHg 87%
    16:00 -9°C° 0.2 mm 6 mps 738 mmHg 86%
    17:00 -11°C° 0.2 mm 7 mps 739 mmHg 85%
    18:00 -11°C° 0.1 mm 7 mps 740 mmHg 84%
    19:00 -12°C° 0.1 mm 7 mps 741 mmHg 84%
    20:00 -12°C° 0.1 mm 7 mps 742 mmHg 83%
    21:00 -13°C° 0.1 mm 7 mps 743 mmHg 83%
    22:00 -13°C° 0.1 mm 7 mps 744 mmHg 82%
    23:00 -14°C° 0.1 mm 7 mps 744 mmHg 82%

    22 February, Friday

    Time Temperature Precipitation Wind Pressure Humidity
    00:00 -14°C° 0.1 mm 7 mps 745 mmHg 82%
    01:00 -15°C° 0.1 mm 7 mps 746 mmHg 81%
    02:00 -15°C° 0.1 mm 7 mps 747 mmHg 81%
    03:00 -17°C° 0 mm 7 mps 748 mmHg 78%
    04:00 -17°C° 0 mm 7 mps 748 mmHg 75%
    05:00 -18°C° 0 mm 7 mps 749 mmHg 73%
    06:00 -18°C° 0 mm 7 mps 750 mmHg 71%
    07:00 -17°C° 0 mm 7 mps 751 mmHg 70%
    08:00 -17°C° 0 mm 7 mps 752 mmHg 69%
    09:00 -15°C° 0 mm 7 mps 753 mmHg 70%
    10:00 -14°C° 0 mm 6 mps 754 mmHg 70%
    11:00 -12°C° 0 mm 6 mps 754 mmHg 71%
    12:00 -11°C° 0 mm 6 mps 754 mmHg 72%
    13:00 -11°C° 0 mm 5 mps 755 mmHg 72%
    14:00 -11°C° 0 mm 5 mps 755 mmHg 73%
    15:00 -11°C° 0 mm 5 mps 756 mmHg 75%
    16:00 -11°C° 0 mm 5 mps 756 mmHg 78%
    17:00 -11°C° 0 mm 4 mps 756 mmHg 81%
    18:00 -11°C° 0 mm 4 mps 757 mmHg 83%
    19:00 -10°C° 0 mm 4 mps 757 mmHg 85%
    20:00 -9°C° 0 mm 3 mps 758 mmHg 88%
    21:00 -10°C° 0 mm 3 mps 758 mmHg 89%
    22:00 -10°C° 0 mm 3 mps 758 mmHg 90%
    23:00 -9°C° 0 mm 2 mps 758 mmHg 92%

    23 February, Saturday

    Time Temperature Precipitation Wind Pressure Humidity
    00:00 -10°C° 0 mm 2 mps 758 mmHg 93%
    01:00 -10°C° 0 mm 2 mps 758 mmHg 94%
    02:00 -10°C° 0 mm 2 mps 758 mmHg 94%
    03:00 -12°C° 0 mm 2 mps 758 mmHg 95%
    04:00 -12°C° 0 mm 2 mps 757 mmHg 95%
    05:00 -12°C° 0 mm 2 mps 757 mmHg 95%
    06:00 -12°C° 0 mm 2 mps 756 mmHg 94%
    07:00 -12°C° 0 mm 2 mps 756 mmHg 93%
    08:00 -12°C° 0 mm 2 mps 755 mmHg 92%
    09:00 -10°C° 0 mm 2 mps 755 mmHg 90%
    10:00 -10°C° 0 mm 3 mps 754 mmHg 88%
    11:00 -9°C° 0 mm 3 mps 754 mmHg 85%
    12:00 -8°C° 0.1 mm 3 mps 753 mmHg 87%
    13:00 -9°C° 0.1 mm 4 mps 752 mmHg 88%
    14:00 -8°C° 0.1 mm 4 mps 752 mmHg 89%
    15:00 -7°C° 0.1 mm 3 mps 752 mmHg 90%
    16:00 -7°C° 0.1 mm 3 mps 751 mmHg 91%
    17:00 -7°C° 0.1 mm 3 mps 751 mmHg 92%
    18:00 -7°C° 0 mm 3 mps 751 mmHg 93%
    19:00 -6°C° 0 mm 2 mps 751 mmHg 94%
    20:00 -6°C° 0 mm 2 mps 751 mmHg 95%
    21:00 -6°C° 0.1 mm 2 mps 751 mmHg 96%
    22:00 -6°C° 0.1 mm 2 mps 751 mmHg 96%
    23:00 -5°C° 0.1 mm 2 mps 751 mmHg 96%
    Show more